Location: Boissi�res
(45.2500°N, 2.3667°E)
Time: 10:52:12
(UTC+00:00)

Nauka - Visible Passes

Search period start: 21 September 2021 00:00
Search period end: 01 October 2021 00:00
Orbit: 419 x 423 km, 51.6° (Epoch: 20 September)

Date Brightness Start Highest point End Pass type
(mag) Time Alt. Az. Time Alt. Az. Time Alt. Az.
21 Sep ? 19:44:03 10° WNW 19:47:07 31° NNW 19:47:52 28° NNE visible
22 Sep ? 18:56:55 10° W 19:00:06 37° NNW 19:02:48 13° NE visible
22 Sep ? 20:34:36 10° WNW 20:35:48 18° NW 20:35:48 18° NW visible
23 Sep ? 19:47:33 10° WNW 19:50:28 26° N 19:50:41 26° N visible
24 Sep ? 19:00:26 10° WNW 19:03:24 28° N 19:05:32 15° NE visible
24 Sep ? 20:37:45 10° NW 20:38:32 15° NW 20:38:32 15° NW visible
25 Sep ? 18:13:18 10° WNW 18:16:21 31° NNW 18:19:25 10° NE visible
25 Sep ? 19:50:50 10° NW 19:53:21 27° N 19:53:21 27° N visible
26 Sep ? 19:03:49 10° WNW 19:06:45 27° N 19:08:11 20° NE visible
26 Sep ? 20:40:45 10° NW 20:41:10 13° NW 20:41:10 13° NW visible
27 Sep ? 18:16:46 10° WNW 18:19:41 26° N 18:22:36 10° ENE visible
27 Sep ? 19:53:51 10° NW 19:55:59 30° NNW 19:55:59 30° NNW visible
28 Sep ? 19:06:56 10° NW 19:10:04 33° NNE 19:10:49 29° NE visible
28 Sep ? 20:43:44 10° WNW 20:43:49 10° WNW 20:43:49 10° WNW visible
29 Sep ? 18:20:00 10° NW 18:23:00 29° N 18:25:41 12° ENE visible
29 Sep ? 19:56:49 10° WNW 19:58:40 30° WNW 19:58:40 30° WNW visible
30 Sep ? 19:09:54 10° NW 19:13:14 57° NNE 19:13:34 53° NE visible
